Notices

What's New in latest Release from April 7th, 2021:

- Updated Glossary, including Speed of Maximum Gust, and Total Hourly Precipitation

- Updated national and regional climate services offices contacts and prices information

- Addition of station inventory lists for 1981-2010, 1971-2000, and 1961-1990 Normals.

If you haven't already, please take our survey and provide feedback about our website: https://eccc.sondage-survey.ca/f/LanguageSelection.aspx?s=442ca660-fcf1-47c0-95a9-59707d6fd709

Hourly Data Report for June 30, 2003

TORONTO CITY
ONTARIO

43°40'00.000" N
79°24'00.000" W
112.50 m
6158355
71508
XTO

Download Data

Hourly Data (June 2003)
Hourly Data Report for June 30, 2003
TIME
LST
Temp Definition
°C
Dew Point Definition
°C
Rel Hum Definition
%
Precip. Amount Definition
mm

Wind Dir Definition
10's deg

Wind Spd Definition
km/h
Visibility Definition
km
Stn Press Definition
kPa
Hmdx Definition


Wind Chill Definition


Weather Definition


00:00 18.3 16.4 89   LegendMM LegendMM LegendMM 100.28     LegendNANA
01:00 17.8 16.0 89   LegendMM LegendMM LegendMM 100.33     LegendNANA
02:00 17.5 15.4 87   LegendMM LegendMM LegendMM 100.38     LegendNANA
03:00 16.8 13.8 82   LegendMM LegendMM LegendMM 100.43     LegendNANA
04:00 16.0 12.8 81   LegendMM LegendMM LegendMM 100.48     LegendNANA
05:00 15.3 12.6 84   LegendMM LegendMM LegendMM 100.56     LegendNANA
06:00 15.7 12.6 82   LegendMM LegendMM LegendMM 100.63     LegendNANA
07:00 16.8 12.8 77   LegendMM LegendMM LegendMM 100.69     LegendNANA
08:00
09:00 20.0 13.0 64   LegendMM LegendMM LegendMM 100.76     LegendNANA
10:00 21.0 11.7 55   LegendMM LegendMM LegendMM 100.76     LegendNANA
11:00 22.2 11.6 51   LegendMM LegendMM LegendMM 100.74     LegendNANA
12:00 23.3 12.7 51   LegendMM LegendMM LegendMM 100.74 26   LegendNANA
13:00 23.8 13.1 51   LegendMM LegendMM LegendMM 100.71 27   LegendNANA
14:00 23.1 14.4 58   LegendMM LegendMM LegendMM 100.68 27   LegendNANA
15:00 24.6 13.4 50   LegendMM LegendMM LegendMM 100.64 28   LegendNANA
16:00 23.6 13.3 52   LegendMM LegendMM LegendMM 100.61 27   LegendNANA
17:00 22.6 12.6 53   LegendMM LegendMM LegendMM 100.57 25   LegendNANA
18:00 22.1 13.1 57   LegendMM LegendMM LegendMM 100.53 25   LegendNANA
19:00 21.1 13.3 61   LegendMM LegendMM LegendMM 100.54     LegendNANA
20:00 20.3 13.5 65   LegendMM LegendMM LegendMM 100.53     LegendNANA
21:00 19.5 13.6 69   LegendMM LegendMM LegendMM 100.60     LegendNANA
22:00 21.3 13.9 63   LegendMM LegendMM LegendMM 100.65 25   LegendNANA
23:00 19.4 14.1 71   LegendMM LegendMM LegendMM 100.65     LegendNANA

Notes on Data Quality.

Legend

  • E = Estimated
  • M = Missing
  • NA = Not Available*
  • [empty] = Indicates an unobserved value
Date modified: